Location: Santa Clara
(37.3540°N, 121.9540°W)
Time: 01:00:09
(UTC-07:00)

BlueWalker 3 - Pass Details

Date: 29 May 2024
Orbit: 480 x 493 km, 53.2° (Epoch: 23 June)

Event Time Altitude Azimuth Distance (km) Brightness Sun altitude
Exits shadow 04:20:31 10° 166° (SSE) 1,634 4.2 -15.2°
Maximum altitude 04:22:51 16° 126° (SE) 1,303 4.1 -14.8°
Drops below altitude 10° 04:25:14 10° 86° (E) 1,652 5.3 -14.5°
Sets 04:28:00 0° 65° (ENE) 2,537 7.1 -14.1°
